Hutchinson, KS

9:49 PM CDT on August 18, 2017 (GMT -0500)
Hutchinson Municipal

Weather History for KHUT - December, 2012

Change the Weather History Date:

Sunday, December 30, 2012

  Actual Average Record
Temperature  
Mean Temperature 34 °F -  
Max Temperature 48 °F 42 °F 72 °F (2004)
Min Temperature 19 °F 17 °F 3 °F (2001)
Degree Days  
Heating Degree Days 32    
Moisture  
Dew Point 18 °F    
Average Humidity 50    
Maximum Humidity 72    
Minimum Humidity 30    
Precipitation  
Precipitation 0.00 in - - ()
Sea Level Pressure  
Sea Level Pressure 30.18 in    
Wind  
Wind Speed 12 mph (South)    
Max Wind Speed 29 mph    
Max Gust Speed 39 mph    
Visibility 10 miles    
Events      
Averages and records for this station are not official NWS values.
T = Trace of Precipitation, MM = Missing Value Source: NWS Daily Summary

Daily Weather History Graph

Daily Weather History Graph

Search for Another Location

Airport or City:

Trip Planner

Search our weather history database for the weather conditions in past years. The results will help you decide how hot, cold, wet, or windy it might be!

Date:

Astronomy

Dec. 30, 2012 Rise Set
Actual Time 7:47 AM CST 5:21 PM CST
Civil Twilight 7:17 AM CST 5:50 PM CST
Nautical Twilight 6:44 AM CST 6:23 PM CST
Astronomical Twilight 6:12 AM CST 6:55 PM CST
Moon 7:51 PM CST (12/30) 8:59 AM CST (12/30)
Length of Visible Light 10h 32m
Length of Day
9h 33m
Waning Gibbous, 95% of the Moon is Illuminated
Dec 30
Waning Gibbous
Jan 4
Last Quarter
Jan 11
New
Jan 18
First Quarter
Jan 26
Full

Hourly Weather History & Observations

Time (CST) Temp. Windchill Dew Point Humidity Pressure Visibility Wind Dir Wind Speed Gust Speed Precip Events Conditions
12:52 AM 21.0 °F 14.6 °F 12.0 °F 68% 30.29 in 10.0 mi SE 4.6 mph - N/A   Clear
1:52 AM 19.9 °F 12.1 °F 12.0 °F 71% 30.28 in 10.0 mi SSE 5.8 mph - N/A   Clear
3:52 AM 21.9 °F 14.5 °F 14.0 °F 72% 30.27 in 10.0 mi South 5.8 mph - N/A   Clear
4:52 AM 30.0 °F 20.5 °F 19.0 °F 64% 30.25 in 10.0 mi South 11.5 mph - N/A   Clear
5:52 AM 27.0 °F 17.3 °F 18.0 °F 69% 30.25 in 10.0 mi South 10.4 mph - N/A   Clear
7:52 AM 27.0 °F 16.7 °F 18.0 °F 69% 30.25 in 10.0 mi South 11.5 mph - N/A   Clear
8:52 AM 27.0 °F 18.0 °F 19.0 °F 72% 30.25 in 10.0 mi South 9.2 mph - N/A   Clear
9:52 AM 34.0 °F 23.8 °F 19.9 °F 56% 30.24 in 10.0 mi South 16.1 mph - N/A   Clear
10:52 AM 37.9 °F 27.9 °F 19.9 °F 48% 30.23 in 10.0 mi South 19.6 mph - N/A   Clear
11:52 AM 46.0 °F 38.3 °F 19.0 °F 34% 30.18 in 10.0 mi SSW 20.7 mph - N/A   Clear
12:52 PM 48.0 °F - 18.0 °F 30% 30.14 in 10.0 mi SSW 28.8 mph 39.1 mph N/A   Clear
1:52 PM 46.9 °F - 17.1 °F 30% 30.12 in 10.0 mi SSW 27.6 mph 36.8 mph N/A   Clear
2:52 PM 46.9 °F - 18.0 °F 32% 30.12 in 10.0 mi SSW 26.5 mph 34.5 mph N/A   Clear
3:52 PM 46.0 °F 38.3 °F 17.1 °F 31% 30.11 in 10.0 mi SSW 20.7 mph 28.8 mph N/A   Clear
4:52 PM 44.1 °F 35.4 °F 18.0 °F 35% 30.11 in 10.0 mi SSW 21.9 mph 28.8 mph N/A   Clear
5:52 PM 42.1 °F 35.2 °F 17.1 °F 37% 30.10 in 10.0 mi South 12.7 mph - N/A   Clear
6:52 PM 39.9 °F 31.8 °F 19.0 °F 43% 30.11 in 10.0 mi South 15.0 mph - N/A   Clear
7:52 PM 39.0 °F 30.6 °F 19.0 °F 45% 30.12 in 10.0 mi South 15.0 mph - N/A   Clear
8:52 PM 37.0 °F 29.3 °F 18.0 °F 46% 30.13 in 10.0 mi South 11.5 mph - N/A   Clear
9:52 PM 36.0 °F 29.0 °F 18.0 °F 48% 30.12 in 10.0 mi South 9.2 mph - N/A   Clear
10:52 PM 33.1 °F 26.1 °F 18.0 °F 54% 30.12 in 10.0 mi SSE 8.1 mph - N/A   Clear
11:52 PM 34.0 °F 26.6 °F 19.0 °F 54% 30.11 in 10.0 mi South 9.2 mph - N/A   Clear